シューメーカー-レヴィ第4彗星

118P/Shoemaker-Levy 4 (2016)

English version
Home page
Updated on March 25, 2017

---------------------------------------------------------------------

・ プロフィール

・ 写真集

・ 軌道要素

Epoch 2016 June 21.0 TT = JDT 2457560.5
T 2016 June 16.96036 TT                                 MPCW
q   1.9800567            (2000.0)            P               Q
n   0.15299392     Peri.  302.33507     -0.07524154     -0.99469611
a   3.4622089      Node   151.72663     +0.95741433     -0.09172292
e   0.4280944      Incl.    8.51429     +0.27874093     +0.04654634
P   6.44
From 1878 observations 1995 June 22-2015 Sept. 25, mean residual 0".8.
     Nongravitational parameters A1 = +0.61, A2 = -0.1677.

・ 星図

・ 光度変化

        H = 14.5  G = 0.15                [    ,-425]  (              〜2015年 4月18日)
        m1 =  8.2 + 5 logΔ + 18.0 log r  [-425,-100]  (2015年 4月18日〜2016年 3月 8日)
        m1 = -6.0 + 5 logΔ + 60.0 log r  [-100, 100]  (2016年 3月 8日〜2016年 9月24日)
        m1 =  8.2 + 5 logΔ + 18.0 log r  [ 100, 435]  (2016年 9月24日〜2017年 8月25日)
        H = 14.5  G = 0.15                [ 435,    ]  (2017年 8月25日〜              )

---------------------------------------------------------------------

軌道要素はM.P.E.C. 2015-S97に掲載されたものです。
星図はステラナビゲータ Ver.8 (アストロアーツ) で作成したものです。
光度グラフはComet for Windowsで作成したものです。

---------------------------------------------------------------------

Copyright(C) Seiichi Yoshida (comet@aerith.net). All rights reserved.